Location: Newark
(33.6333°S, 78.8500°W)
Time: 05:36:56
(UTC+00:00)

Transit 2A Rocket - All Passes

Search period start: 22 September 2019 00:00
Search period end: 02 October 2019 00:00
Orbit: 592 x 911 km, 66.7° (Epoch: 20 September)

Date Brightness Start Highest point End Pass type
(mag) Time Alt. Az. Time Alt. Az. Time Alt. Az.
22 Sep - 03:47:01 10° NNE 03:51:05 29° ENE 03:55:29 10° SE night (unlit)
22 Sep - 05:29:25 10° WNW 05:33:35 28° SW 05:38:07 10° S night (unlit)
22 Sep - 12:34:39 10° SSE 12:38:07 15° SE 12:41:35 10° E daylight
22 Sep - 14:15:21 10° SSW 14:21:30 88° WNW 14:27:34 10° NNE daylight
22 Sep - 16:02:11 10° W 16:03:15 10° W 16:04:21 10° WNW daylight
23 Sep - 03:06:12 10° NE 03:08:54 15° ENE 03:11:43 10° ESE night (unlit)
23 Sep - 04:46:12 10° NW 04:50:50 49° WSW 04:56:00 10° SSE night (unlit)
23 Sep - 13:32:56 10° SSW 13:38:56 56° ESE 13:44:53 10° NE daylight
23 Sep - 15:16:47 10° WSW 15:21:06 20° WNW 15:25:22 10° NNW daylight
24 Sep - 04:03:31 10° NNW 04:08:17 88° ENE 04:13:36 10° SSE night (unlit)
24 Sep - 05:49:58 10° WSW 05:51:46 12° SW 05:53:36 10° SSW visible
24 Sep - 12:50:45 10° S 12:56:15 34° ESE 13:01:41 10° ENE daylight
24 Sep - 14:33:21 10° SW 14:38:51 35° WNW 14:44:15 10° N daylight
25 Sep - 03:21:22 10° N 03:25:53 45° ENE 03:30:52 10° SE night (unlit)
25 Sep - 05:05:09 10° W 05:08:46 20° SW 05:12:38 10° S night (unlit)
25 Sep - 12:08:53 10° S 12:13:24 21° SE 12:17:54 10° E daylight
25 Sep - 13:50:26 10° SSW 13:56:28 62° WNW 14:02:24 10° NNE daylight
26 Sep - 02:39:51 10° NNE 02:43:37 24° ENE 02:47:41 10° SE night (unlit)
26 Sep - 04:21:31 10° WNW 04:25:56 34° SW 04:30:47 10° S night (unlit)
26 Sep - 11:27:43 10° SSE 11:30:25 13° SE 11:33:07 10° ESE daylight
26 Sep - 13:07:49 10° SSW 13:13:59 79° ESE 13:20:02 10° NNE daylight
26 Sep - 14:53:05 10° WSW 14:55:52 13° WNW 14:58:38 10° NW daylight
27 Sep - 01:59:43 10° ENE 02:01:29 12° ENE 02:03:18 10° E night (unlit)
27 Sep - 03:38:29 10° NW 03:43:15 61° WSW 03:48:34 10° SSE night (unlit)
27 Sep - 12:25:29 10° SSW 12:31:23 47° ESE 12:37:11 10° NE daylight
27 Sep - 14:08:52 10° SW 14:13:41 25° WNW 14:18:25 10° NNW daylight
28 Sep - 02:56:00 10° NNW 03:00:45 71° ENE 03:06:03 10° SSE night (unlit)
28 Sep - 04:41:20 10° W 04:44:02 14° SW 04:46:52 10° SSW visible
28 Sep - 11:43:24 10° S 11:48:38 29° SE 11:53:48 10° ENE daylight
28 Sep - 13:25:39 10° SW 13:31:23 43° WNW 13:37:01 10° N daylight
29 Sep - 02:14:02 10° N 02:18:24 36° ENE 02:23:12 10° SE night (unlit)
29 Sep - 03:57:05 10° WNW 04:01:05 24° SW 04:05:25 10° S night (unlit)
29 Sep - 11:01:41 10° S 11:05:44 18° SE 11:09:46 10° E daylight
29 Sep - 12:42:50 10° SSW 12:48:59 75° WNW 12:54:59 10° NNE daylight
30 Sep - 01:32:49 10° NNE 01:36:11 19° ENE 01:39:46 10° ESE night (unlit)
30 Sep - 03:13:42 10° NW 03:18:19 41° WSW 03:23:25 10° SSE night (unlit)
30 Sep - 10:21:11 10° SSE 10:22:42 11° SE 10:24:13 10° ESE visible
30 Sep - 12:00:20 10° SSW 12:06:27 66° ESE 12:12:26 10° NE daylight
30 Sep - 13:44:47 10° WSW 13:48:28 17° WNW 13:52:07 10° NW daylight
01 Oct - 02:30:51 10° NNW 02:35:41 77° WSW 02:41:05 10° SSE night (unlit)
01 Oct - 04:19:09 10° SW 04:19:21 10° SW 04:19:34 10° SW visible
01 Oct - 11:18:04 10° S 11:23:48 39° ESE 11:29:25 10° NE daylight
01 Oct - 13:01:02 10° SW 13:06:16 30° WNW 13:11:21 10° NNW daylight
